When you browse on this site, cookies collect data to enhance your experience and personalize the content and advertising you see.
Visit our Privacy Policy to learn more. By continuing to use the site, you agree to this use of cookies and data.
  • en Suisse
  • Liste des pays
  • À 7 jours
  • Température de l'eau
  • Carte satellitaire
  • Carte météo
  • Widgets météo
  • user-avatar
    Se connecter

    Météo par heure à Yanghou

    Ce jour, 26 Mai, Dimanche

    Heure Température Précipitation Vent Pression Humidité
    00:00 +23°C° 0 mm 1 m/s 725 mmHg 95%
    01:00 +23°C° 0 mm 1 m/s 725 mmHg 95%
    02:00 +23°C° 0 mm 1 m/s 725 mmHg 96%
    03:00 +23°C° 0 mm 1 m/s 725 mmHg 96%
    04:00 +23°C° 0 mm 1 m/s 725 mmHg 97%
    05:00 +23°C° 0 mm 1 m/s 725 mmHg 97%
    06:00 +24°C° 0.1 mm 1 m/s 725 mmHg 92%
    07:00 +25°C° 0.1 mm 1 m/s 725 mmHg 87%
    08:00 +26°C° 0 mm 2 m/s 725 mmHg 82%
    09:00 +26°C° 0.2 mm 2 m/s 725 mmHg 83%
    10:00 +26°C° 0.2 mm 1 m/s 725 mmHg 84%
    11:00 +26°C° 0.2 mm 1 m/s 725 mmHg 85%
    12:00 +26°C° 0.6 mm 1 m/s 725 mmHg 86%
    13:00 +26°C° 0.6 mm 1 m/s 725 mmHg 87%
    14:00 +26°C° 0.6 mm 1 m/s 724 mmHg 89%
    15:00 +26°C° 0.4 mm 1 m/s 724 mmHg 89%
    16:00 +26°C° 0.4 mm 1 m/s 724 mmHg 90%
    17:00 +26°C° 0.4 mm 1 m/s 724 mmHg 90%
    18:00 +25°C° 0.2 mm 1 m/s 724 mmHg 92%
    19:00 +25°C° 0.2 mm 1 m/s 724 mmHg 95%
    20:00 +24°C° 0.2 mm 1 m/s 724 mmHg 97%
    21:00 +24°C° 0.3 mm 1 m/s 724 mmHg 97%
    22:00 +24°C° 0.3 mm 1 m/s 724 mmHg 98%
    23:00 +23°C° 0.3 mm 1 m/s 724 mmHg 98%

    Demain, 27 Mai, Lundi

    Heure Température Précipitation Vent Pression Humidité
    00:00 +23°C° 0.2 mm 1 m/s 724 mmHg 98%
    01:00 +23°C° 0.2 mm 1 m/s 724 mmHg 98%
    02:00 +23°C° 0.2 mm 1 m/s 723 mmHg 98%
    03:00 +23°C° 0.3 mm 1 m/s 723 mmHg 98%
    04:00 +21°C° 0.3 mm 0 m/s 723 mmHg 98%
    05:00 +21°C° 0.3 mm 0 m/s 723 mmHg 98%
    06:00 +22°C° 0.3 mm 0 m/s 724 mmHg 96%
    07:00 +25°C° 0.3 mm 1 m/s 724 mmHg 94%
    08:00 +26°C° 0.3 mm 1 m/s 724 mmHg 92%
    09:00 +27°C° 0.1 mm 1 m/s 724 mmHg 86%
    10:00 +28°C° 0.1 mm 1 m/s 724 mmHg 80%
    11:00 +30°C° 0.1 mm 1 m/s 725 mmHg 74%
    12:00 +30°C° 0.3 mm 1 m/s 724 mmHg 72%
    13:00 +31°C° 0.3 mm 1 m/s 724 mmHg 69%
    14:00 +31°C° 0.3 mm 1 m/s 723 mmHg 67%
    15:00 +31°C° 1.6 mm 1 m/s 723 mmHg 73%
    16:00 +30°C° 1.6 mm 1 m/s 723 mmHg 79%
    17:00 +29°C° 1.6 mm 1 m/s 723 mmHg 85%
    18:00 +28°C° 2.1 mm 1 m/s 723 mmHg 87%
    19:00 +25°C° 2.1 mm 0 m/s 723 mmHg 90%
    20:00 +23°C° 2.1 mm 0 m/s 723 mmHg 92%
    21:00 +23°C° 1 mm 0 m/s 724 mmHg 92%
    22:00 +23°C° 1 mm 0 m/s 724 mmHg 92%
    23:00 +23°C° 1 mm 0 m/s 724 mmHg 92%

    Après-demain, 28 Mai, Mardi

    Heure Température Précipitation Vent Pression Humidité
    00:00 +23°C° 0.9 mm 0 m/s 724 mmHg 93%
    01:00 +23°C° 0.9 mm 0 m/s 724 mmHg 94%
    02:00 +24°C° 0.9 mm 1 m/s 724 mmHg 95%
    03:00 +24°C° 0.3 mm 1 m/s 724 mmHg 96%
    04:00 +22°C° 0.3 mm 0 m/s 724 mmHg 96%
    05:00 +22°C° 0.3 mm 0 m/s 724 mmHg 96%
    06:00 +22°C° 0.5 mm 0 m/s 725 mmHg 96%
    07:00 +23°C° 0.5 mm 0 m/s 725 mmHg 95%
    08:00 +23°C° 0.5 mm 0 m/s 726 mmHg 95%
    09:00 +23°C° 0.6 mm 0 m/s 726 mmHg 94%
    10:00 +23°C° 0.6 mm 0 m/s 726 mmHg 94%
    11:00 +23°C° 0.6 mm 0 m/s 727 mmHg 94%
    12:00 +23°C° 0.4 mm 0 m/s 727 mmHg 93%
    13:00 +25°C° 0.4 mm 1 m/s 726 mmHg 93%
    14:00 +24°C° 0.4 mm 1 m/s 726 mmHg 93%
    15:00 +24°C° 0.3 mm 1 m/s 726 mmHg 93%
    16:00 +24°C° 0.3 mm 1 m/s 726 mmHg 93%
    17:00 +24°C° 0.3 mm 1 m/s 726 mmHg 93%
    18:00 +23°C° 0.2 mm 1 m/s 726 mmHg 94%
    19:00 +23°C° 0.2 mm 1 m/s 727 mmHg 94%
    20:00 +22°C° 0.2 mm 1 m/s 727 mmHg 95%
    21:00 +22°C° 0 mm 1 m/s 728 mmHg 95%
    22:00 +22°C° 0 mm 1 m/s 728 mmHg 95%
    23:00 +22°C° 0 mm 1 m/s 728 mmHg 95%

    29 Mai, Mercredi

    Heure Température Précipitation Vent Pression Humidité
    00:00 +21°C° 0 mm 1 m/s 728 mmHg 95%
    01:00 +21°C° 0 mm 1 m/s 727 mmHg 96%
    02:00 +20°C° 0 mm 1 m/s 727 mmHg 96%
    03:00 +20°C° 0 mm 1 m/s 727 mmHg 96%
    04:00 +19°C° 0 mm 1 m/s 727 mmHg 96%
    05:00 +19°C° 0 mm 1 m/s 727 mmHg 96%
    06:00 +20°C° 0 mm 1 m/s 727 mmHg 90%
    07:00 +21°C° 0 mm 1 m/s 728 mmHg 83%
    08:00 +22°C° 0 mm 1 m/s 728 mmHg 77%
    09:00 +23°C° 0.1 mm 1 m/s 728 mmHg 72%
    10:00 +24°C° 0.1 mm 1 m/s 728 mmHg 67%
    11:00 +25°C° 0.1 mm 1 m/s 728 mmHg 62%
    12:00 +25°C° 0.1 mm 1 m/s 728 mmHg 63%
    13:00 +24°C° 0.1 mm 1 m/s 727 mmHg 64%
    14:00 +24°C° 0.1 mm 2 m/s 727 mmHg 65%
    15:00 +23°C° 0.3 mm 1 m/s 727 mmHg 70%
    16:00 +22°C° 0.3 mm 1 m/s 727 mmHg 75%
    17:00 +21°C° 0.3 mm 1 m/s 727 mmHg 80%
    18:00 +21°C° 0.1 mm 1 m/s 727 mmHg 82%
    19:00 +20°C° 0.1 mm 1 m/s 727 mmHg 83%
    20:00 +19°C° 0.1 mm 1 m/s 727 mmHg 85%
    21:00 +19°C° 0 mm 1 m/s 727 mmHg 86%
    22:00 +18°C° 0 mm 1 m/s 727 mmHg 87%
    23:00 +18°C° 0 mm 1 m/s 728 mmHg 87%

    30 Mai, Jeudi

    Heure Température Précipitation Vent Pression Humidité
    00:00 +16°C° 0 mm 1 m/s 727 mmHg 87%
    01:00 +16°C° 0 mm 1 m/s 727 mmHg 87%
    02:00 +16°C° 0 mm 1 m/s 726 mmHg 87%
    03:00 +16°C° 0 mm 1 m/s 726 mmHg 86%
    04:00 +16°C° 0 mm 1 m/s 726 mmHg 84%
    05:00 +16°C° 0 mm 1 m/s 726 mmHg 83%
    06:00 +17°C° 0 mm 0 m/s 727 mmHg 75%
    07:00 +19°C° 0 mm 0 m/s 727 mmHg 67%
    08:00 +21°C° 0 mm 0 m/s 728 mmHg 60%
    09:00 +26°C° 0 mm 1 m/s 728 mmHg 55%
    10:00 +28°C° 0 mm 1 m/s 727 mmHg 49%
    11:00 +31°C° 0 mm 1 m/s 727 mmHg 44%
    12:00 +32°C° 0 mm 1 m/s 727 mmHg 46%
    13:00 +32°C° 0 mm 1 m/s 726 mmHg 47%
    14:00 +33°C° 0 mm 1 m/s 726 mmHg 48%
    15:00 +32°C° 0 mm 1 m/s 725 mmHg 54%
    16:00 +31°C° 0 mm 1 m/s 725 mmHg 59%
    17:00 +30°C° 0 mm 1 m/s 725 mmHg 65%
    18:00 +28°C° 0 mm 1 m/s 725 mmHg 72%
    19:00 +26°C° 0 mm 1 m/s 725 mmHg 79%
    20:00 +25°C° 0 mm 1 m/s 725 mmHg 86%
    21:00 +24°C° 0.1 mm 1 m/s 726 mmHg 88%
    22:00 +24°C° 0.1 mm 1 m/s 726 mmHg 90%
    23:00 +21°C° 0.1 mm 0 m/s 726 mmHg 92%

    31 Mai, Vendredi

    Heure Température Précipitation Vent Pression Humidité
    00:00 +21°C° 0.6 mm 0 m/s 726 mmHg 93%
    01:00 +21°C° 0.6 mm 0 m/s 725 mmHg 95%
    02:00 +21°C° 0.6 mm 0 m/s 725 mmHg 97%
    03:00 +20°C° 0.1 mm 0 m/s 725 mmHg 97%
    04:00 +20°C° 0.1 mm 0 m/s 725 mmHg 97%
    05:00 +20°C° 0.1 mm 0 m/s 725 mmHg 97%
    06:00 +23°C° 0.1 mm 1 m/s 725 mmHg 96%
    07:00 +24°C° 0.1 mm 1 m/s 725 mmHg 94%
    08:00 +25°C° 0.1 mm 1 m/s 726 mmHg 92%
    09:00 +27°C° 0.1 mm 1 m/s 725 mmHg 85%
    10:00 +28°C° 0.1 mm 1 m/s 725 mmHg 78%
    11:00 +30°C° 0.1 mm 1 m/s 725 mmHg 71%
    12:00 +29°C° 1.6 mm 1 m/s 725 mmHg 78%
    13:00 +28°C° 1.6 mm 1 m/s 724 mmHg 84%
    14:00 +25°C° 1.6 mm 0 m/s 723 mmHg 91%
    15:00 +25°C° 1.1 mm 0 m/s 723 mmHg 92%
    16:00 +25°C° 1.1 mm 0 m/s 723 mmHg 93%
    17:00 +25°C° 1.1 mm 0 m/s 723 mmHg 94%
    18:00 +24°C° 0.6 mm 0 m/s 723 mmHg 94%
    19:00 +23°C° 0.6 mm 0 m/s 723 mmHg 95%
    20:00 +23°C° 0.6 mm 0 m/s 724 mmHg 95%
    21:00 +22°C° 0.7 mm 0 m/s 724 mmHg 96%
    22:00 +22°C° 0.7 mm 0 m/s 724 mmHg 96%
    23:00 +22°C° 0.7 mm 0 m/s 724 mmHg 97%
    Voir plus